Regional Weather Roundup
Issued by NWS

Home | Current Version | Previous Version | Graphics & Text | Print | Product List | Glossary On
Versions: 1 2 3 4 5 6 7 8 9 10 11 12 13 14 15 16 17 18 19 20 21 22 23 24 25 26 27 28 29 30 31 32 33 34 35 36 37 38 39 40 41 42 43 44 45 46 47 48 49 50
000
ASUS43 KDTX 280510
RWRMI
MICHIGAN HOURLY REGIONAL WEATHER ROUNDUP
NATIONAL WEATHER SERVICE DETROIT/PONTIAC MI
100 AM EDT TUE APR 28 2015

NOTE: "FAIR" INDICATES FEW OR NO CLOUDS BELOW 12,000 FEET WITH NO
SIGNIFICANT WEATHER AND/OR OBSTRUCTION TO VISIBILITY.

MIZ047>049-052>055-059>063-066>070-074>076-081>083-280600-
SOUTHEAST LOWER MICHIGAN

CITY           SKY/WX    TMP DP  RH WIND       PRES   REMARKS
ADRIAN         CLEAR     36  32  85 CALM      30.10S
ALMA           CLEAR     41  34  74 E5        30.11S
ANN ARBOR      CLEAR     31  28  89 CALM      30.09S
BAD AXE        CLEAR     34  31  92 CALM      30.11R
DETROIT CITY   PTCLDY    40  33  76 CALM      30.10S
DETROIT          N/A     42  33  70 CALM      30.10S
FLINT          CLOUDY    45  32  60 E6        30.12R
GROSSE ILE     CLEAR     41  36  81 NE5       30.08F
HILLSDALE      CLEAR     36  34  92 CALM      30.08F
HOWELL         CLOUDY    39  33  78 CALM      30.09S

CITY           SKY/WX    TMP DP  RH WIND       PRES   REMARKS
JACKSON        CLEAR     34  31  88 CALM      30.09S
LAMBERTVILLE   CLEAR     37  34  87 CALM      30.10S
LANSING        CLOUDY    43  34  70 NW3       30.11R
LAPEER         NOT AVBL
MASON          CLEAR     33  31  91 CALM      30.10R
MONROE         CLEAR     37  34  87 CALM      30.09R
PONTIAC        CLEAR     37  31  78 CALM      30.09R
PORT HOPE        N/A     45  36  70 N6        30.08S
PORT HURON     PTCLDY    37  32  81 NW5       30.10R
TRI CITIES     MOCLDY    45  34  65 E5        30.12S
YPSILANTI      CLEAR     40  32  73 N3        30.10S
$$
MIZ043>046-050>051-056>058-064>065-071>073-077>080-280600-
SOUTHWEST LOWER MICHIGAN

CITY           SKY/WX    TMP DP  RH WIND       PRES   REMARKS
BATTLE CREEK   CLEAR     40  34  79 SW3       30.10S
BENTON HARBOR  CLEAR     33  32  96 CALM      30.11S
BIG RAPIDS     CLEAR     40  33  75 CALM      30.10S
COLDWATER      CLEAR     36  32  86 CALM      30.10S
HOLLAND        CLEAR     39  34  82 W3        30.10F
GRAND RAPIDS   CLEAR     42  33  70 W6        30.09S
KALAMAZOO      CLEAR     40  33  76 CALM      30.10S
MARSHALL       CLEAR     36  32  88 CALM      30.09S
MUSKEGON       CLEAR     45  34  65 N6        30.10S
$$
MIZ016>042-280600-
NORTHERN LOWER MICHIGAN

CITY           SKY/WX    TMP DP  RH WIND       PRES   REMARKS
ALPENA         CLOUDY    45  35  68 N7        30.12S
BEAVER ISLAND  CLOUDY    40  34  76 NW5       30.15S
BELLAIRE       CLOUDY    45  35  66 CALM      30.13F
CADILLAC         N/A     33  29  87 CALM      30.09S
CHARLEVOIX     CLOUDY    40  34  77 N6        30.17S
FRANKFORT      CLEAR     43  32  64 NE5       30.13S
GAYLORD        CLOUDY    43  33  68 NE3       30.11S
GRAYLING       CLOUDY    44  33  64 CALM      30.12R
HARBOR SPRINGS CLOUDY    45  33  64 CALM      30.13F
HOUGHTON LAKE  PTCLDY    43  32  65 NE5       30.10F
MANISTEE       CLEAR     37  30  75 CALM      30.12S
OSCODA         CLOUDY    45  35  67 N3        30.10S
PELLSTON       CLOUDY    45  34  65 N7        30.14S
TRAVERSE CITY  PTCLDY    39  32  76 CALM      30.12S
$$
MIZ007>008-015-280600-
EASTERN UPPER MICHIGAN

CITY           SKY/WX    TMP DP  RH WIND       PRES   REMARKS
KINROSS        CLOUDY    37  36  93 N7        30.13F
MACKINAC ISLAN CLOUDY    41  33  73 N8        30.13S
NEWBERRY       CLOUDY    37  33  84 CALM      30.15S
S. S. MARIE    CLOUDY    43  33  68 N3        30.13F
$$
MIZ004>006-011>014-085-280600-
CENTRAL UPPER MICHIGAN

CITY           SKY/WX    TMP DP  RH WIND       PRES   REMARKS
MANISTIQUE     CLOUDY    39  32  75 CALM      30.15F
ESCANABA       CLOUDY    39  30  70 NW3       30.17S
MENOMINEE      CLEAR     39  30  70 CALM      30.16S
SAWYER-GWINN   CLEAR     32  29  87 CALM      30.15S
$$
MIZ001>003-009>011-084-280600-
WESTERN UPPER MICHIGAN

CITY           SKY/WX    TMP DP  RH WIND       PRES   REMARKS
IRON MOUNTAIN  CLEAR     37  29  72 CALM      30.15S
HOUGHTON       CLEAR     32  28  85 NW6       30.14F
COPPER HARBOR    N/A     34  29  82 SW5       30.15S
IRONWOOD       CLEAR     36  34  93 CALM      30.13F
$$

ABBREVIATIONS USED IN REMARKS
   TC - TEMPERATURE IN CELSIUS
  WCI - WIND CHILL INDEX
   HX - HEAT INDEX
  VSB - VISIBILITY



USA.gov is the U.S. government's official web portal to all federal, state and local government web resources and services.